Overview Statistics Trail Chart Weather Telemetry Raw packets
 

This is the latest recevied weather packets stored in our database for station/object K6POO-1. If no packets are shown the sender has not sent any weather packets the latest 10 day(s).

<< 69 70 71 72 73 74 75 >>
Time Temp. Humidity Pressure Rain* Wind** Luminosity Snow
1788197040 15° C 87% 1015.1 hPa 0 mm - 184 W/m² -
1788196740 15° C 88% 1015.1 hPa 0 mm - 219 W/m² -
1788196437 15° C 88% 1015 hPa 0 mm - 195 W/m² -
1788196150 14.44° C 88% 1014.9 hPa 0 mm - 147 W/m² -
1788195829 14.44° C 89% 1015 hPa 0 mm - 114 W/m² -
1788195525 14.44° C 89% 1014.8 hPa 0 mm - 120 W/m² -
1788195221 14.44° C 89% 1014.8 hPa 0 mm - 131 W/m² -
1788194917 14.44° C 89% 1014.8 hPa 0 mm - 102 W/m² -
1788194613 14.44° C 89% 1014.8 hPa 0 mm - 78 W/m² -
1788194308 14.44° C 89% 1014.7 hPa 0 mm - 86 W/m² -
1788194004 14.44° C 89% 1014.8 hPa 0 mm - 92 W/m² -
1788193702 14.44° C 88% 1014.8 hPa 0 mm - 76 W/m² -
1788193398 14.44° C 89% 1014.6 hPa 0 mm - 72 W/m² -
1788193096 14.44° C 89% 1014.5 hPa 0 mm - 96 W/m² -
1788192794 14.44° C 89% 1014.5 hPa 0 mm - 85 W/m² -
1788192494 14.44° C 89% 1014.3 hPa 0 mm - 90 W/m² -
1788192189 14.44° C 89% 1014.3 hPa 0 mm - 78 W/m² -
1788191889 14.44° C 89% 1014.4 hPa 0 mm - 73 W/m² -
1788191584 14.44° C 89% 1014.2 hPa 0 mm - 60 W/m² -
1788191279 14.44° C 89% 1014.3 hPa 0 mm - 80 W/m² -
1788190976 14.44° C 89% 1014.4 hPa 0 mm - 74 W/m² -
1788190674 14.44° C 89% 1014.3 hPa 0 mm - 51 W/m² -
1788190370 14.44° C 89% 1014.5 hPa 0 mm - 64 W/m² -
1788190065 14.44° C 89% 1014.3 hPa 0 mm - 38 W/m² -
1788189762 14.44° C 89% 1014.2 hPa 0 mm - 46 W/m² -

* Rain latest hour (hover to see other rain measurements)
** Current wind speed in m/s (hover to see current wind gust speed)